FFLY-3

导读

FFLY-2卫星计划于2025年8月26日发射,目前发射国家尚未公布。作为一颗备受关注的待发射卫星,它的相关任务目标、技术参数等细节还未公开披露。从命名来看,它大概率是某国航天计划中的重要组成部分,后续发射成功后将可能在通信、遥感或者科学探测等领域发挥作用,其进展值得全球航天爱好者持续关注。

Basic Information
目录编号:
65322
目录名称:
FFLY-2
国际标识:
2025-188H
轨道中心:
EARTH
卫星名称:
FFLY-2
卫星全名:
FFLY-3
卫星状态:
在轨 (已飞行375 天)
发射日期:
2025-08-26 UTC
国别 :
美国 (US)
星等 :
--
Orbit Information
数据来源 国际轨道数据
星历时间: 2026-09-05T12:30:02+0800
5小时前
查看轨道信息
半长轴: 6967.269km
偏心率: 0.0011723
轨道倾角: 97.731°
近地点辐角 213.206°
升交点赤经 322.043°
平近点角 146.843°
近地点: 580.964km
远地点: 597.3km
周期: 96.461分钟
每日圈数: 14.92825
Detailed Information
使用方式:
暂无
2D Orbit Map
3D Orbit Map
Orbit Altitude Analysis Chart
Orbit Inclination Analysis Chart
Orbit Comprehensive Analysis Chart
View Comprehensive Chart
Conjunction Data List
Event ID Objects TCA Miss Dist (km) Collision Risk Probability Collision Risk Index (CRI) Action
CDM_260905-060406-532206-898422
FFLY-2 (65322)
2026-09-05T
06:04:39+0000
1.168 km
极远距离
1.596772E-5 中风险 0.59
CDM_260830-034106-532206-898725
FFLY-2 (65322)
2026-08-30T
03:41:03+0000
1.408 km
极远距离
8.34583E-6 低风险 0.53
CDM_260905-105006-532206-991424
FFLY-2 (65322)
TOM-2 (69914)
2026-09-05T
10:50:49+0000
1.827 km
极远距离
3.67919E-6 低风险 0.46
CDM_260906-184201-302606-532221
FFLY-2 (65322)
2026-09-06T
18:42:45+0000
2.191 km
极远距离
2.25089E-6 低风险 0.42
CDM_260905-105006-532206-989723
FFLY-2 (65322)
2026-09-05T
10:50:48+0000
2.255 km
极远距离
2.167273E-6 低风险 0.42
CDM_260906-023802-262606-532223
FFLY-2 (65322)
2026-09-06T
02:38:00+0000
2.418 km
极远距离
1.789455E-6 低风险 0.4
CDM_260831-052506-532206-899021
FFLY-2 (65322)
PEARL-1A (68990)
2026-08-31T
05:25:34+0000
2.992 km
极远距离
1.352908E-6 低风险 0.38
CDM_260902-091804-134806-532221
FFLY-2 (65322)
2026-09-02T
09:18:28+0000
2.569 km
极远距离
1.242136E-6 低风险 0.37